| time (UTC) | temp F | wind direction | speed MPH | gust MPH | rain 1hr in | rain 24hr in | rain mn in | humidity % | barometer mb |
| 20260906231515 | 74 | 334 | 7.0 | 15.0 | 0.00 | 0.00 | 0.00 | 49 | 1007.3 |
| 20260906230015 | 74 | 321 | 9.0 | 16.0 | 0.00 | 0.00 | 0.00 | 49 | 1007.4 |
| 20260906224506 | 73 | 324 | 9.0 | 16.0 | 0.00 | 0.00 | 0.00 | 50 | 1007.5 |
| 20260906223009 | 74 | 329 | 9.0 | 20.0 | 0.00 | 0.00 | 0.00 | 47 | 1007.5 |
| 20260906221532 | 75 | 305 | 6.0 | 17.0 | 0.00 | 0.00 | 0.00 | 46 | 1007.4 |
| 20260906220114 | 76 | 305 | 8.0 | 16.0 | 0.00 | 0.00 | 0.00 | 41 | 1007.3 |
| 20260906214509 | 77 | 309 | 5.0 | 13.0 | 0.00 | 0.00 | 0.00 | 41 | 1007.1 |
| 20260906213030 | 78 | 325 | 4.0 | 13.0 | 0.00 | 0.00 | 0.00 | 43 | 1007.4 |
| 20260906211526 | 79 | 279 | 5.0 | 13.0 | 0.00 | 0.00 | 0.00 | 34 | 1007.4 |
| 20260906210026 | 80 | 269 | 6.0 | 17.0 | 0.00 | 0.00 | 0.00 | 32 | 1007.1 |
| 20260906204543 | 80 | 230 | 8.0 | 15.0 | 0.00 | 0.00 | 0.00 | 35 | 1006.7 |
| 20260906203025 | 81 | 206 | 8.0 | 15.0 | 0.00 | 0.00 | 0.00 | 32 | 1006.5 |
| 20260906201524 | 82 | 211 | 7.0 | 14.0 | 0.00 | 0.00 | 0.00 | 27 | 1006.4 |
| 20260906200024 | 82 | 211 | 11.0 | 21.0 | 0.00 | 0.00 | 0.00 | 25 | 1006.3 |
| 20260906194527 | 84 | 243 | 2.0 | 7.0 | 0.00 | 0.00 | 0.00 | 25 | 1005.9 |
| 20260906193023 | 84 | 237 | 5.0 | 12.0 | 0.00 | 0.00 | 0.00 | 25 | 1006.0 |
| 20260906191528 | 85 | 238 | 7.0 | 14.0 | 0.00 | 0.00 | 0.00 | 24 | 1006.1 |
| 20260906190021 | 86 | 256 | 3.0 | 9.0 | 0.00 | 0.00 | 0.00 | 24 | 1006.3 |
| 20260906184520 | 86 | 166 | 4.0 | 8.0 | 0.00 | 0.00 | 0.00 | 23 | 1006.4 |
| 20260906183019 | 88 | 178 | 3.0 | 10.0 | 0.00 | 0.00 | 0.00 | 22 | 1006.5 |
| 20260906181613 | 88 | 138 | 2.0 | 8.0 | 0.00 | 0.00 | 0.00 | 21 | 1006.6 |
| 20260906180007 | 86 | 120 | 2.0 | 6.0 | 0.00 | 0.00 | 0.00 | 22 | 1006.9 |
| 20260906174504 | 84 | 253 | 3.0 | 6.0 | 0.00 | 0.00 | 0.00 | 26 | 1007.0 |
| 20260906173018 | 82 | 12 | 1.0 | 5.0 | 0.00 | 0.00 | 0.00 | 26 | 1007.2 |
| 20260906171516 | 80 | 344 | 3.0 | 6.0 | 0.00 | 0.00 | 0.00 | 27 | 1007.3 |
| 20260906170016 | 80 | 46 | 3.0 | 5.0 | 0.00 | 0.00 | 0.00 | 28 | 1007.1 |
| 20260906164515 | 81 | 344 | 5.0 | 8.0 | 0.00 | 0.00 | 0.00 | 28 | 1007.4 |
| 20260906163012 | 79 | 71 | 2.0 | 6.0 | 0.00 | 0.00 | 0.00 | 25 | 1007.2 |
| 20260906161514 | 77 | 34 | 2.0 | 4.0 | 0.00 | 0.00 | 0.00 | 33 | 1007.6 |
| 20260906160004 | 75 | 44 | 0.0 | 3.0 | 0.00 | 0.00 | 0.00 | 33 | 1007.7 |
| 20260906154601 | 73 | 49 | 0.0 | 1.0 | 0.00 | 0.00 | 0.00 | 35 | 1007.8 |
| 20260906153056 | 70 | 49 | 0.0 | 3.0 | 0.00 | 0.00 | 0.00 | 38 | 1007.7 |
| 20260906151600 | 68 | 49 | 1.0 | 3.0 | 0.00 | 0.00 | 0.00 | 40 | 1007.7 |
| 20260906150055 | 66 | 49 | 0.0 | 3.0 | 0.00 | 0.00 | 0.00 | 44 | 1007.9 |
| 20260906144555 | 64 | 49 | 1.0 | 3.0 | 0.00 | 0.00 | 0.00 | 48 | 1007.8 |
| 20260906143054 | 62 | 49 | 0.0 | 0.0 | 0.00 | 0.00 | 0.00 | 50 | 1007.9 |
| 20260906141516 | 60 | 49 | 0.0 | 3.0 | 0.00 | 0.00 | 0.00 | 54 | 1007.8 |
| 20260906140054 | 59 | 49 | 0.0 | 1.0 | 0.00 | 0.00 | 0.00 | 58 | 1007.5 |
| 20260906134551 | 57 | 49 | 0.0 | 2.0 | 0.00 | 0.00 | 0.00 | 64 | 1007.5 |
| 20260906133051 | 57 | 49 | 0.0 | 3.0 | 0.00 | 0.00 | 0.00 | 68 | 1007.1 |
| 20260906131546 | 58 | 49 | 0.0 | 1.0 | 0.00 | 0.00 | 0.00 | 55 | 1006.9 |
| 20260906130046 | 58 | 49 | 0.0 | 2.0 | 0.00 | 0.00 | 0.00 | 54 | 1006.8 |
| 20260906124544 | 58 | 49 | 0.0 | 1.0 | 0.00 | 0.00 | 0.00 | 60 | 1006.7 |
| 20260906123043 | 58 | 49 | 0.0 | 1.0 | 0.00 | 0.00 | 0.00 | 55 | 1006.4 |
| 20260906121543 | 58 | 49 | 0.0 | 2.0 | 0.00 | 0.00 | 0.00 | 62 | 1006.4 |
| 20260906120049 | 58 | 49 | 0.0 | 1.0 | 0.00 | 0.00 | 0.00 | 53 | 1006.2 |
| 20260906114538 | 58 | 49 | 0.0 | 0.0 | 0.00 | 0.00 | 0.00 | 56 | 1006.2 |
| 20260906113043 | 59 | 49 | 0.0 | 3.0 | 0.00 | 0.00 | 0.00 | 62 | 1006.1 |
| 20260906111533 | 59 | 53 | 0.0 | 0.0 | 0.00 | 0.00 | 0.00 | 54 | 1005.8 |
| 20260906110032 | 60 | 53 | 0.0 | 0.0 | 0.00 | 0.00 | 0.00 | 56 | 1005.8 |
| 20260906104535 | 60 | 53 | 0.0 | 0.0 | 0.00 | 0.00 | 0.00 | 56 | 1005.7 |
| 20260906103028 | 60 | 53 | 0.0 | 0.0 | 0.00 | 0.00 | 0.00 | 57 | 1005.7 |
| 20260906101528 | 61 | 53 | 0.0 | 0.0 | 0.00 | 0.00 | 0.00 | 57 | 1005.7 |
| 20260906100026 | 61 | 53 | 0.0 | 1.0 | 0.00 | 0.00 | 0.00 | 57 | 1005.5 |
| 20260906094535 | 61 | 53 | 0.0 | 2.0 | 0.00 | 0.00 | 0.00 | 53 | 1005.6 |
| 20260906093033 | 62 | 53 | 0.0 | 1.0 | 0.00 | 0.00 | 0.00 | 46 | 1005.4 |
| 20260906091519 | 62 | 53 | 0.0 | 2.0 | 0.00 | 0.00 | 0.00 | 47 | 1005.3 |
| 20260906090019 | 62 | 53 | 0.0 | 2.0 | 0.00 | 0.00 | 0.00 | 43 | 1005.3 |
| 20260906084521 | 63 | 53 | 0.0 | 0.0 | 0.00 | 0.00 | 0.00 | 57 | 1005.2 |
| 20260906083018 | 63 | 53 | 0.0 | 1.0 | 0.00 | 0.00 | 0.00 | 46 | 1005.0 |
| 20260906081515 | 63 | 53 | 0.0 | 2.0 | 0.00 | 0.00 | 0.00 | 46 | 1005.1 |
| 20260906080111 | 64 | 53 | 0.0 | 2.0 | 0.00 | 0.00 | 0.00 | 51 | 1005.1 |
| 20260906074530 | 64 | 53 | 0.0 | 1.0 | 0.00 | 0.00 | 0.00 | 53 | 1005.2 |
| 20260906073059 | 65 | 53 | 0.0 | 0.0 | 0.00 | 0.00 | 0.00 | 50 | 1005.1 |
| 20260906071602 | 66 | 53 | 0.0 | 1.0 | 0.00 | 0.00 | 0.00 | 54 | 1005.4 |
| 20260906070053 | 67 | 53 | 0.0 | 0.0 | 0.00 | 0.00 | 0.00 | 48 | 1005.2 |
| 20260906064551 | 68 | 53 | 0.0 | 1.0 | 0.00 | 0.00 | 0.00 | 42 | 1005.1 |
| 20260906063054 | 69 | 53 | 0.0 | 0.0 | 0.00 | 0.00 | 0.00 | 46 | 1005.0 |
| 20260906061556 | 70 | 53 | 0.0 | 1.0 | 0.00 | 0.00 | 0.00 | 39 | 1005.2 |
| 20260906060046 | 70 | 53 | 0.0 | 1.0 | 0.00 | 0.00 | 0.00 | 38 | 1005.1 |
| 20260906054546 | 71 | 53 | 0.0 | 6.0 | 0.00 | 0.00 | 0.00 | 35 | 1005.0 |
| 20260906053051 | 70 | 339 | 0.0 | 4.0 | 0.00 | 0.00 | 0.00 | 36 | 1004.9 |
| 20260906051545 | 70 | 339 | 1.0 | 2.0 | 0.00 | 0.00 | 0.00 | 41 | 1004.8 |
| 20260906050046 | 71 | 339 | 0.0 | 4.0 | 0.00 | 0.00 | 0.00 | 42 | 1004.8 |
| 20260906044544 | 73 | 339 | 2.0 | 4.0 | 0.00 | 0.00 | 0.00 | 42 | 1004.7 |
| 20260906043043 | 76 | 330 | 2.0 | 4.0 | 0.00 | 0.00 | 0.00 | 36 | 1004.7 |
| 20260906041543 | 80 | 178 | 1.0 | 4.0 | 0.00 | 0.00 | 0.00 | 28 | 1004.7 |
| 20260906040043 | 81 | 178 | 0.0 | 3.0 | 0.00 | 0.00 | 0.00 | 20 | 1004.6 |
| 20260906034547 | 82 | 175 | 4.0 | 8.0 | 0.00 | 0.00 | 0.00 | 20 | 1004.5 |
| 20260906033041 | 82 | 182 | 3.0 | 10.0 | 0.00 | 0.00 | 0.00 | 20 | 1004.4 |
| 20260906031541 | 82 | 180 | 0.0 | 5.0 | 0.00 | 0.00 | 0.00 | 21 | 1004.2 |
| 20260906030041 | 82 | 192 | 2.0 | 6.0 | 0.00 | 0.00 | 0.00 | 20 | 1003.9 |
| 20260906024551 | 83 | 191 | 3.0 | 7.0 | 0.00 | 0.00 | 0.00 | 20 | 1003.8 |
| 20260906023038 | 83 | 188 | 3.0 | 6.0 | 0.00 | 0.00 | 0.00 | 20 | 1003.4 |
| 20260906021538 | 84 | 184 | 1.0 | 5.0 | 0.00 | 0.00 | 0.00 | 20 | 1003.3 |
| 20260906020046 | 86 | 159 | 0.0 | 2.0 | 0.00 | 0.00 | 0.00 | 20 | 1003.2 |
| 20260906014550 | 87 | 159 | 2.0 | 7.0 | 0.00 | 0.00 | 0.00 | 17 | 1003.2 |
| 20260906013036 | 88 | 182 | 3.0 | 9.0 | 0.00 | 0.00 | 0.00 | 17 | 1003.4 |
| 20260906011541 | 89 | 222 | 5.0 | 8.0 | 0.00 | 0.00 | 0.00 | 16 | 1003.4 |
| 20260906010036 | 90 | 181 | 6.0 | 9.0 | 0.00 | 0.00 | 0.00 | 16 | 1003.5 |
| 20260906004541 | 91 | 159 | 3.0 | 8.0 | 0.00 | 0.00 | 0.00 | 16 | 1003.5 |
| 20260906003047 | 92 | 220 | 1.0 | 6.0 | 0.00 | 0.00 | 0.00 | 15 | 1003.4 |
| 20260906001504 | 92 | 182 | 1.0 | 3.0 | 0.00 | 0.00 | 0.00 | 15 | 1003.4 |
| 20260906000003 | 92 | 198 | 6.0 | 13.0 | 0.00 | 0.00 | 0.00 | 14 | 1003.4 |
| 20260905234503 | 93 | 190 | 3.0 | 11.0 | 0.00 | 0.00 | 0.00 | 14 | 1003.5 |
| 20260905233003 | 93 | 187 | 5.0 | 13.0 | 0.00 | 0.00 | 0.00 | 14 | 1003.6 |